レモン彗星

C/2021 C6 ( Lemmon )

English version
Home page
Updated on July 3, 2021

---------------------------------------------------------------------

・ プロフィール

発見日 2021年2月7日
発見光度 20.8等
発見者 Mt. Lemmon Survey

・ 写真集

・ 軌道要素

Epoch 2021 July 5.0 TT = JDT 2459400.5
T 2021 Nov. 13.34152 TT                                 Rudenko
q   3.2712781            (2000.0)            P               Q
z  -0.0006230      Peri.  203.56669     -0.63040745     +0.76632377
 +/-0.0000007      Node   332.15534     +0.74770175     +0.64231040
e   1.0020381      Incl.  164.62583     +0.20863495     +0.01361039
From 152 observations 2021 Jan. 23-June 7, mean residual 0".5.

・ 光度変化

        m1 = 11.5 + 5 logΔ + 10.0 log r

---------------------------------------------------------------------

軌道要素はM.P.E.C. 2021-N06に掲載されたものです。
光度グラフはComet for Windowsで作成したものです。

---------------------------------------------------------------------

Copyright(C) Seiichi Yoshida (comet@aerith.net). All rights reserved.